{"data":{"norad_id":56325,"epoch":"2026-09-20T22:00:03.000096Z","epoch_age_seconds":72805,"freshness":"FRESH","line1":"1 56325U 23058J   26263.91670139  .00068146  00000+0  32801-2 0  9994","line2":"2 56325  97.2813 257.7412 0001692  75.1369 313.8072 15.18489288  5799","mean_motion":15.18489288,"eccentricity":0.0001692,"inclination_deg":97.2813,"raan_deg":257.7412,"arg_perigee_deg":75.1369,"mean_anomaly_deg":313.8072,"bstar":0.0032801,"rev_number":579,"period_min":94.8310937311,"perigee_km":509.24012875729,"apogee_km":511.57121159687,"semimajor_km":6888.5426701771,"source":"CELESTRAK","updated_at":"2026-09-21T09:00:33.402043Z"}}